Terminal Aerodrome Forecast
Issued by NWS Mt. Holly, NJ

Home | Current Version | Previous Version | Text Only | Print | Product List | Glossary On
Versions: 1 2 3 4 5 6 7 8 9 10 11 12 13 14 15 16 17 18 19 20 21 22 23 24 25 26 27 28 29 30 31 32 33 34 35 36 37 38 39 40 41 42 43 44 45 46 47 48 49 50
000
FTUS41 KPHI 220900 AAA
TAFABE
TAF AMD
KABE 220901Z 2209/2306 34003KT P6SM SKC
      TEMPO 2210/2212 5SM BR SCT040
     FM221300 22006KT P6SM FEW050
      TEMPO 2216/2220 BKN050
     FM222200 21005KT P6SM FEW250=

USA.gov is the U.S. government's official web portal to all federal, state and local government web resources and services.